Weather History for CYWG - January, 2012

Change the Weather History Date:

Wednesday, January 25, 2012

  Actual Average Record
Temperature  
Mean Temperature 22 °F -  
Max Temperature 31 °F - - ()
Min Temperature 12 °F - - ()
Degree Days  
Heating Degree Days 44    
Moisture  
Dew Point 20 °F    
Average Humidity 89    
Maximum Humidity 93    
Minimum Humidity 80    
Precipitation  
Precipitation 0.02 in - - ()
Sea Level Pressure  
Sea Level Pressure 29.74 in    
Wind  
Wind Speed 18 mph ()    
Max Wind Speed 34 mph    
Max Gust Speed 43 mph    
Visibility 13.3 miles    
Events Snow    
T = Trace of Precipitation, MM = Missing Value Source: Averaged Metar Reports

Daily Weather History Graph

Daily Weather History Graph

Search for Another Location

Airport or City:

Trip Planner

Search our weather history database for the weather conditions in past years. The results will help you decide how hot, cold, wet, or windy it might be!

Date:

Astronomy

Jan. 25, 2012 Rise Set
Actual Time 8:11 AM CST 5:11 PM CST
Civil Twilight 7:36 AM CST 5:46 PM CST
Nautical Twilight 6:56 AM CST 6:26 PM CST
Astronomical Twilight 6:18 AM CST 7:04 PM CST
Moon 8:52 AM CST (1/25) 8:28 PM CST (1/25)
Length of Visible Light 10h 10m
Length of Day
8h 59m
Waxing Crescent, 7% of the Moon is Illuminated
Jan 25
Waxing Crescent
Jan 30
First Quarter
Feb 7
Full
Feb 14
Last Quarter
Feb 21
New

Hourly Weather History & Observations

Time (CST) Temp. Windchill Dew Point Humidity Pressure Visibility Wind Dir Wind Speed Gust Speed Precip Events Conditions
12:00 AM 16 °F - 13 °F 80% 30.03 in 9 mi South 13.8 mph - -  
12:00 AM 15.8 °F 1.4 °F 12.2 °F 86% 30.03 in 15.0 mi South 13.8 mph - N/A   Clear
1:00 AM 14.0 °F -0.2 °F 12.2 °F 93% 30.01 in 15.0 mi South 12.7 mph - N/A   Clear
2:00 AM 14.0 °F 1.2 °F 10.4 °F 86% 30.00 in 15.0 mi South 10.4 mph - N/A   Partly Cloudy
3:00 AM 15.8 °F 0.9 °F 14.0 °F 93% 29.98 in 15.0 mi South 15.0 mph - N/A   Partly Cloudy
4:00 AM 17.6 °F 2.2 °F 14.0 °F 86% 29.97 in 15.0 mi South 17.3 mph - N/A   Scattered Clouds
5:00 AM 17.6 °F 3.2 °F 14.0 °F 86% 29.96 in 15.0 mi South 15.0 mph - N/A   Mostly Cloudy
6:00 AM 16 °F - 13 °F 83% 29.91 in 9 mi South 18.4 mph - -  
6:00 AM 15.8 °F -1.1 °F 14.0 °F 93% 29.92 in 15.0 mi South 19.6 mph - N/A   Scattered Clouds
7:00 AM 15.8 °F -1.5 °F 14.0 °F 93% 29.89 in 15.0 mi South 20.7 mph 28.8 mph N/A   Scattered Clouds
8:00 AM 15.8 °F -3.1 °F 14.0 °F 93% 29.86 in 15.0 mi South 25.3 mph 32.2 mph N/A Snow Low Drifting Snow
9:00 AM 17.6 °F -1.0 °F 15.8 °F 93% 29.83 in 10.0 mi South 26.5 mph 33.4 mph N/A   Scattered Clouds
10:00 AM 21.2 °F 3.9 °F 19.4 °F 93% 29.79 in 15.0 mi South 26.5 mph 33.4 mph N/A   Mostly Cloudy
11:00 AM 23.0 °F 6.0 °F 21.2 °F 93% 29.77 in 15.0 mi South 27.6 mph 35.7 mph N/A Snow Low Drifting Snow
11:40 AM - - - N/A% - 15.0 mi South 31.1 mph 36.8 mph N/A   Unknown
12:00 PM 27 °F - 24 °F 85% 29.70 in 7 mi South 29.9 mph - -   Unknown Precipitation
12:00 PM 26.6 °F 10.0 °F 24.8 °F 93% 29.70 in 15.0 mi South 31.1 mph 39.1 mph N/A Snow Low Drifting Snow
1:00 PM 28.4 °F 13.0 °F 26.6 °F 93% 29.65 in 15.0 mi South 28.8 mph 41.4 mph N/A Snow Low Drifting Snow
2:00 PM 30.2 °F 14.3 °F 26.6 °F 86% 29.59 in 15.0 mi South 34.5 mph 42.6 mph N/A Snow Low Drifting Snow
3:00 PM 30.2 °F 14.9 °F 28.4 °F 93% 29.57 in 15.0 mi South 31.1 mph 41.4 mph N/A Snow Low Drifting Snow
4:53 PM 28.4 °F 12.7 °F - N/A% - 15.0 mi South 29.9 mph 38.0 mph N/A Snow Low Drifting Snow
5:00 PM 28.4 °F 13.3 °F 26.6 °F 93% 29.52 in 15.0 mi South 27.6 mph 38.0 mph N/A Snow Low Drifting Snow
6:00 PM 28 °F - 26 °F 87% 29.52 in 7 mi South 27.6 mph - -   Unknown Precipitation
6:00 PM 28.4 °F 13.0 °F 26.6 °F 93% 29.52 in 15.0 mi South 28.8 mph 34.5 mph N/A Snow Low Drifting Snow
6:15 PM 28.4 °F 13.3 °F - N/A% - 10.0 mi South 27.6 mph 34.5 mph N/A Snow Low Drifting Snow
7:00 PM 28.4 °F 13.5 °F 26.6 °F 93% 29.49 in 8.0 mi South 26.5 mph 34.5 mph N/A Snow Low Drifting Snow
8:00 PM 28.4 °F 14.7 °F 24.8 °F 86% 29.47 in 8.0 mi South 21.9 mph 28.8 mph N/A Snow Low Drifting Snow
9:00 PM 28.4 °F 15.1 °F 24.8 °F 86% 29.45 in 15.0 mi South 20.7 mph - N/A   Partly Cloudy
10:00 PM 28.4 °F 15.8 °F 24.8 °F 86% 29.44 in 15.0 mi SSW 18.4 mph - N/A   Clear
11:00 PM 30.2 °F 21.3 °F 26.6 °F 86% 29.44 in 15.0 mi SW 10.4 mph - N/A   Clear